LLBGLLHA

Guest
Details From LLBG - Tel Aviv Ben Gurion
To LLHA - Haifa
Flight Number -
Tags generated
Created
Modified
Stats Distance 49 nm / 90 km
Max Altitude 4,200 ft / 1,280 m
Waypoints 3
Social Downloads 0
Likes 0
Share VATSIM

Download

Looking for another format? Having issues loading an existing format? Contact us
Advertisement - Login to hide

Notes

Basic altitude profile: - Ascent Rate: 2500ft/min - Ascent Speed: 250kts - Cruise Altitude: 35000ft - Cruise Speed: 420kts - Descent Rate: 1500ft/min - Descent Speed: 250kts Options: - Use NATs: yes - Use PACOTS: yes - Use low airways: yes - Use high airways: yes

Route

LLBG KANER LLHA

ID Type Via Altitude Latitude Longitude Leg Dist Tot Dist Heading (true) Name
O LLBG APT - 0 ft / 0 m 32.01147˚ 34.88506˚ - 0 nm - Tel Aviv Ben Gurion
KANER FIX - 4,200 ft / 1,280 m 32.20839˚ 34.92829˚ 12 nm 12 nm 11° / 11° -
O LLHA APT - 0 ft / 0 m 32.81113˚ 35.04414˚ 36 nm 48 nm 9° / 9° Haifa

Altitude Profile

Advertisement - Login to hide

LLBG

Details ICAO LLBG (TLV)
Name Tel Aviv Ben Gurion
Region Israel
Timezone Asia/Jerusalem (UTC+2.0)
Stats Elevation 135 ft / 41 m (AMSL)
Location 32.011468° 34.885059°
Runways 3
Magnetic Variation 4.688° E

METAR

LLBG 182220Z 11004KT CAVOK 15/09 Q1020 NOSIG RMK FEW140

Decode

TAF

TAF TAF LLBG 181105Z 1812/1912 34006KT CAVOK BECMG 1814/1816 04004KT BECMG 1819/1821 10005KT PROB40 1906/1910 12012KT TX23/1812Z TN12/1904Z

Decode

Departure Runways

ID Width Length Bearing (true) Bearing (mag) Surface Threshold Offset Overrun Length
03 148 ft / 45 m 5,792 ft / 1,765 m 28.88° 24.19° Asphalt 0 ft / 0 m 216 ft / 66 m
08 148 ft / 45 m 12,017 ft / 3,663 m 79.72° 75.03° Asphalt 0 ft / 0 m 295 ft / 90 m
12 148 ft / 45 m 10,279 ft / 3,133 m 121.54° 116.85° Asphalt 0 ft / 0 m 328 ft / 100 m
21 148 ft / 45 m 5,792 ft / 1,765 m 208.88° 204.19° Asphalt 0 ft / 0 m 216 ft / 66 m
26 148 ft / 45 m 12,017 ft / 3,663 m 259.74° 255.05° Asphalt 1,969 ft / 600 m 205 ft / 62 m
30 148 ft / 45 m 10,279 ft / 3,133 m 301.56° 296.87° Asphalt 246 ft / 75 m 347 ft / 106 m

LLHA

Details ICAO LLHA (HFA)
Name Haifa
Region Israel
Timezone Asia/Jerusalem (UTC+2.0)
Stats Elevation 28 ft / 9 m (AMSL)
Location 32.811125° 35.044139°
Runways 1
Magnetic Variation 4.782° E

METAR

Not found

TAF

TAF LLHA 181705Z 1818/1918 14008KT CAVOK PROB30 1906/1910 13015KT PROB40 1910/1918 02008KT TX23/1912Z TN16/1904Z

Decode

Destination Runways

ID Width Length Bearing (true) Bearing (mag) Surface Threshold Offset Overrun Length
16 98 ft / 30 m 4,161 ft / 1,268 m 158.88° 154.10° Asphalt 164 ft / 50 m 0 ft / 0 m
34 98 ft / 30 m 4,161 ft / 1,268 m 338.88° 334.10° Asphalt 380 ft / 116 m 90 ft / 27 m

Popular Alternatives